TimeEDT,TemperatureF,Dew PointF,Humidity,Sea Level PressureIn,VisibilityMPH,Wind Direction,Wind SpeedMPH,Gust SpeedMPH,PrecipitationIn,Events,Conditions,WindDirDegrees,DateUTC
12:56 AM,28.9,26.1,89,29.81,10.0,NW,3.5,-,N/A,,Clear,320,2013-03-27 04:56:00
1:56 AM,30.9,25.0,79,29.81,10.0,NNW,4.6,-,N/A,,Clear,330,2013-03-27 05:56:00
2:56 AM,27.0,25.0,92,29.81,10.0,North,3.5,-,N/A,,Clear,10,2013-03-27 06:56:00
3:56 AM,28.0,26.1,92,29.81,10.0,Calm,Calm,-,N/A,,Clear,0,2013-03-27 07:56:00
4:56 AM,28.0,24.1,85,29.81,10.0,Calm,Calm,-,N/A,,Clear,0,2013-03-27 08:56:00
5:56 AM,27.0,23.0,85,29.82,10.0,North,4.6,-,N/A,,Clear,350,2013-03-27 09:56:00
6:56 AM,26.1,24.1,92,29.83,10.0,NNW,3.5,-,N/A,,Clear,340,2013-03-27 10:56:00
7:56 AM,36.0,25.0,64,29.85,10.0,NNW,5.8,-,N/A,,Clear,330,2013-03-27 11:56:00
8:56 AM,42.1,23.0,47,29.85,10.0,NNW,10.4,-,N/A,,Clear,340,2013-03-27 12:56:00
9:56 AM,46.0,21.9,39,29.84,10.0,NNW,13.8,-,N/A,,Clear,340,2013-03-27 13:56:00
10:56 AM,50.0,23.0,35,29.84,10.0,NW,8.1,-,N/A,,Clear,320,2013-03-27 14:56:00
11:56 AM,51.1,24.1,35,29.82,10.0,Variable,5.8,19.6,N/A,,Partly Cloudy,0,2013-03-27 15:56:00
12:56 PM,46.9,35.1,63,29.81,10.0,SW,16.1,-,N/A,,Mostly Cloudy,230,2013-03-27 16:56:00
1:56 PM,45.0,30.9,58,29.79,10.0,WSW,17.3,25.3,N/A,,Overcast,240,2013-03-27 17:56:00
2:56 PM,48.0,32.0,54,29.78,10.0,WSW,12.7,-,N/A,,Overcast,240,2013-03-27 18:56:00
3:56 PM,51.1,24.1,35,29.78,10.0,North,10.4,-,N/A,,Overcast,350,2013-03-27 19:56:00
4:56 PM,51.1,23.0,33,29.79,10.0,North,12.7,20.7,N/A,,Overcast,350,2013-03-27 20:56:00
5:56 PM,50.0,23.0,35,29.81,10.0,NNW,10.4,20.7,N/A,,Overcast,340,2013-03-27 21:56:00
6:56 PM,48.0,21.0,34,29.82,10.0,NW,9.2,-,N/A,,Mostly Cloudy,320,2013-03-27 22:56:00
7:56 PM,48.0,24.1,39,29.85,10.0,NNW,15.0,24.2,N/A,,Overcast,330,2013-03-27 23:56:00
8:56 PM,46.0,26.1,46,29.87,10.0,NNW,11.5,-,N/A,,Overcast,330,2013-03-28 00:56:00
9:56 PM,44.1,27.0,51,29.88,10.0,NW,10.4,-,N/A,,Mostly Cloudy,320,2013-03-28 01:56:00
10:56 PM,43.0,27.0,53,29.88,10.0,NW,10.4,-,N/A,,Mostly Cloudy,310,2013-03-28 02:56:00
11:56 PM,43.0,28.0,56,29.88,10.0,NNW,10.4,-,N/A,,Mostly Cloudy,330,2013-03-28 03:56:00